User: anonymous   Login
Location: Pitton
(51.0667°N, 1.7000°W)
Time: 04:23:23
(UTC+00:00)
Language:

Cosmos 2219 - Orbit

View from above orbital plane
View from above orbital plane
View from above satellite
View from above satellite

Ground track
Ground track

The orbit data is extracted from the following two-line orbital elements,

1 22219U 92076A   19325.68548625  .00000280  00000-0  17289-3 0  9994
2 22219  71.0571 143.8188 0016728 116.5507 243.7332 14.13632798393633
Epoch (UTC): 21 November 2019 16:27:06
Eccentricity: 0.0016728
inclination: 71.0571°
perigee height: 835 km
apogee height: 859 km
right ascension of ascending node: 143.8188°
argument of perigee: 116.5507°
revolutions per day: 14.13632798
mean anomaly at epoch: 243.7332°
orbit number at epoch: 39363

The dashed part of the orbit path shows where the satellite is in the earth's shadow,  

DLR